Tracking 25707 objects as of 29-Jun-2022
HD Live streaming from Space Station
objects crossing your sky now

WEINA 2

Track WEINA 2 now!
10-day predictions


NORAD ID: 47303
Int'l Code: 2020-103B
Perigee: 700.8 km
Apogee: 704.0 km
Inclination: 98.2 °
Period: 98.7 minutes
Semi major axis: 7073 km
RCS: Unknown
Launch date: December 27, 2020
Source: People's Republic of China (PRC)
Launch site: Jiuquan Satellite Launch Center, China (JSC)
aabbcc
Your satellite tracking list
Your tracking list is empty




NASA's NSSDC Master Catalog

Two Line Element Set (TLE):
1 47303U 20103B   22179.49292385  .00069139  00000-0  14472-1 0  9993
2 47303  98.2130  70.5572 0002239  94.5979 265.3292 14.59355283 79906
Source of the keplerian elements: AFSPC